Weather in Eyik

Russia / Sakha (Yakutia) Republic     66°02′05″N   117°24′10″E
temp.,
°C
wind,
m/s
gust,
m/s
humid.,
%
clouds,
%
prec.,
mm/h
press.,
hPa
HPBL,
m
21 january, thu
thu2100:00−44nnw1297100 0.0 102818
03:00−45nw2297100 0.1 102818
06:00−45nw229797 0.0 102918
09:00−45wnw229698 0.0 102918
12:00−44wnw2396100 0.0 102974
15:00−43wnw3396100 0.1 103054
18:00−44wnw2297100 0.0 103018
21:00−45wnw2298100 0.0 103118
22 january, fri
fri2200:00−46nw229999 0.0 103018
03:00−47wnw2210095 0.0 103118
06:00−48wnw1210080 0.0 103118
09:00−48wnw1210075 0.0 103118
12:00−48wnw119958 0.0 103118
15:00−47wnw119964 0.0 103118
18:00−49w1110061 0.0 103118
21:00−49w1110062 0.0 103118
23 january, sat
sat2300:00−49wsw1110072 0.0 103218
03:00−49wsw1210076 0.0 103218
06:00−49sw129972 0.0 103218
09:00−49sw119975 0.0 103318
12:00−48sw229675 0.0 103418
15:00−47sw229576 0.0 103518
18:00−48sw229775 0.0 103618
21:00−48sw229676 0.0 103718
24 january, sun
sun2400:00−48sw239775 0.0 103718
03:00−48sw239774 0.0 103818
06:00−47wsw239878 0.0 103918
09:00−47sw239876 0.0 104018
12:00−46sw239779 0.0 104118
15:00−45sw229776 0.0 104118
18:00−46sw229876 0.0 104318
21:00−46sw229977 0.0 104418
25 january, mon
mon2500:00−46sw2210077 0.0 104418
03:00−45ssw229979 0.0 104518
06:00−46ssw2210077 0.0 104518
09:00−47s2210071 0.0 104618
12:00−46s239861 0.0 104618
15:00−46s229758 0.0 104618
18:00−47sse2210056 0.0 104718
21:00−48sse239957 0.0 104818